Home   Weather   Geldern   Past weeks

Flag for Germany Past Weather in Geldern, North Rhine-Westphalia, Germany — Yesterday and Last 2 Weeks

Now
54 °F

Clear.


Feels Like: 54 °F
Forecast: 52 / 66 °F
Wind: No wind

Location: Niederrhein

Current Time: Sep 30, 2016 at 8:50:43 PM

Latest Report: Sep 30, 2016 at 8:20 PM


Visibility: 10 mi

Pressure: 29.95 "Hg

Humidity: 72%

Dew Point: 45 °F

Location of GeldernLocation

Past Weather in Geldern — Graph

°F

Geldern Temperature Yesterday

Maximum temperature yesterday: 68 °F (at 2:50 PM)
Minimum temperature yesterday: 59 °F (at 9:20 PM)
Average temperature yesterday: 64 °F

High & Low Weather Summary for the Past Weeks

 TemperatureHumidityPressure
High81 °F (Sep 15, 7:20 PM)100% (Sep 15, 11:50 PM)30.30 "Hg (Sep 15, 11:50 PM)
Low43 °F (Sep 27, 7:50 AM)37% (Sep 25, 4:20 PM)29.80 "Hg (Sep 15, 7:20 PM)
Average62 °F73%30.10 "Hg
* Reported Sep 15 7:20 PM — Sep 30 7:50 PM, Geldern, Weather by CustomWeather, © 2016

Note: Actual official high and low records may vary slightly from our data, if they occured in-between our weather recording intervals... More about our weather records

Advertising

Geldern Weather History for the Previous 24 Hours

Scroll right to see more
 ConditionsComfort  
Time TempWeatherWind HumidityBarometerVisibility
7:50 PM
Fri, Sep 30
57 °FSunny.No wind63%29.95 "Hg10 mi
6:50 PM61 °FSunny.5 mph55%29.92 "Hg10 mi
6:20 PM64 °FSunny.6 mph49%29.92 "Hg10 mi
5:50 PM64 °FSunny.10 mph49%29.95 "Hg10 mi
5:20 PM64 °FPassing clouds.10 mph49%29.95 "HgN/A
4:50 PM64 °FPassing clouds.12 mph49%29.95 "HgN/A
4:20 PM64 °FPassing clouds.10 mph49%29.95 "HgN/A
3:50 PM64 °FSunny.14 mph49%29.95 "Hg10 mi
3:20 PM64 °FPassing clouds.14 mph52%29.95 "HgN/A
2:50 PM64 °FPassing clouds.14 mph52%29.95 "HgN/A
2:20 PM63 °FPassing clouds.15 mph52%29.95 "HgN/A
1:50 PM64 °FPassing clouds.14 mph56%29.95 "HgN/A
1:20 PM63 °FSunny.13 mph56%29.95 "Hg10 mi
12:50 PM63 °FSunny.13 mph59%29.95 "Hg10 mi
12:20 PM61 °FSunny.14 mph68%29.95 "Hg10 mi
11:50 AM61 °FPassing clouds.13 mph77%29.95 "HgN/A
11:20 AM61 °FPassing clouds.9 mph83%29.95 "HgN/A
10:50 AM59 °FPassing clouds.9 mph88%29.95 "HgN/A
10:20 AM59 °FScattered clouds.10 mph100%29.95 "HgN/A
9:50 AM59 °FScattered clouds.8 mph100%29.95 "HgN/A
9:20 AM57 °FScattered clouds.8 mph100%29.92 "HgN/A
8:50 AM57 °FScattered clouds.8 mph100%29.92 "HgN/A
8:20 AM55 °FPassing clouds.9 mph100%29.92 "HgN/A
7:50 AM55 °FPassing clouds.7 mph100%29.92 "HgN/A
7:20 AM55 °FPassing clouds.8 mph100%29.92 "HgN/A
6:50 AM55 °FPassing clouds.8 mph100%29.92 "HgN/A
5:50 AM55 °FPassing clouds.6 mph100%29.89 "HgN/A
5:20 AM57 °FPassing clouds.7 mph100%29.89 "HgN/A
4:50 AM57 °FPassing clouds.7 mph100%29.92 "HgN/A
11:50 PM
Thu, Sep 29
59 °FClear.10 mph100%29.95 "Hg10 mi
11:20 PM59 °FClear.9 mph100%29.95 "Hg10 mi
10:50 PM59 °FClear.10 mph94%29.95 "Hg10 mi
10:20 PM59 °FPartly cloudy.12 mph94%29.95 "HgN/A
9:50 PM59 °FPassing clouds.14 mph94%29.95 "HgN/A
9:20 PM59 °FLight rain. Partly cloudy.21 mph100%29.95 "Hg4 mi
8:50 PM63 °FPassing clouds.17 mph88%29.92 "HgN/A
8:20 PM64 °FPassing clouds.17 mph78%29.92 "HgN/A
Weather by CustomWeather, © 2016

See weather overviewHow to use our weather pages